User: anonymous   Login
Location: Unspecified
(0.0000°N, 0.0000°E)
Time: 22:19:17
(UTC+00:00)
Language:

NOAA 9 - Orbit

View from above orbital plane
View from above orbital plane
View from above satellite
View from above satellite

Ground track
Ground track

The orbit data is extracted from the following two-line orbital elements,

1 15427U 84123A   17327.46970500  .00000036  00000-0  40661-4 0  9998
2 15427  98.8212 269.6976 0014051 223.1072 244.0561 14.16018671700918
Epoch (UTC): 23 November 2017 11:16:22
Eccentricity: 0.0014051
inclination: 98.8212°
perigee height: 829 km
apogee height: 849 km
right ascension of ascending node: 269.6976°
argument of perigee: 223.1072°
revolutions per day: 14.16018671
mean anomaly at epoch: 244.0561°
orbit number at epoch: 70091

The dashed part of the orbit path shows where the satellite is in the earth's shadow,  

DLR